Вернуться в каталог

FENGYUN 1C DEB

АктивенPO
NORAD 33678·DEBRIS·🇨🇳 China

Запущен May 10, 1999 с Taiyuan Satellite Launch Center

Loading…

Ближайшие Пролёты (ближайшие 24 часа)

TLE

СвежийSource: Space-Track

Эпоха: Sep 12, 2026, 16:48 UTC

1 33678U 99025DFP 26255.70025524  .00001213  00000-0  26200-3 0  9997
2 33678  99.0222 344.9240 0203441 137.9347 223.7667 14.48330390990609

Отслеживайте FENGYUN 1C DEB в реальном времени с AllMySat

Download on the App Store